| time (UTC) | temp C | wind direction | speed KPH | gust KPH | rain 1hr cm | rain 24hr cm | rain mn cm | humidity % | barometer mb |
| 20260906111534 | -17 | 3.2 | 0.0 | 0.00 | 0.03 | 0.03 | 1022.5 | ||
| 20260906104603 | 16 | 303 | 9.7 | 17.7 | 0.00 | 0.03 | 0.03 | 91 | 1022.5 |
| 20260906103034 | 16 | 294 | 8.0 | 17.7 | 0.00 | 0.03 | 0.03 | 91 | 1022.4 |
| 20260906100055 | 17 | 320 | 4.8 | 16.1 | 0.00 | 0.03 | 0.03 | 91 | 1022.6 |
| 20260906094540 | 17 | 251 | 9.7 | 17.7 | 0.00 | 0.03 | 0.03 | 91 | 1022.7 |
| 20260906091557 | 18 | 139 | 1.6 | 9.7 | 0.00 | 0.03 | 0.03 | 88 | 1022.8 |
| 20260906090046 | 17 | 312 | 3.2 | 9.7 | 0.00 | 0.03 | 0.03 | 90 | 1023.0 |
| 20260906084533 | 16 | 124 | 1.6 | 9.7 | 0.00 | 0.03 | 0.03 | 94 | 1023.0 |
| 20260906083033 | 15 | 301 | 3.2 | 6.4 | 0.00 | 0.03 | 0.03 | 94 | 1023.0 |
| 20260906080039 | 15 | 306 | 3.2 | 9.7 | 0.00 | 0.03 | 0.03 | 94 | 1022.9 |
| 20260906073041 | 15 | 328 | 3.2 | 6.4 | 0.00 | 0.03 | 0.03 | 95 | 1022.9 |
| 20260906070050 | 13 | 164 | 0.0 | 0.0 | 0.00 | 0.03 | 0.03 | 93 | 1022.8 |
| 20260906064543 | 12 | 164 | 0.0 | 3.2 | 0.00 | 0.03 | 0.03 | 93 | 1022.8 |
| 20260906061559 | 10 | 164 | 0.0 | 0.0 | 0.03 | 0.03 | 0.03 | 93 | 1022.5 |
| 20260906060047 | 8 | 164 | 0.0 | 0.0 | 0.03 | 0.03 | 0.03 | 93 | 1022.5 |
| 20260906054544 | 7 | 164 | 0.0 | 0.0 | 0.03 | 0.03 | 0.03 | 93 | 1022.2 |
| 20260906053032 | 7 | 164 | 0.0 | 0.0 | 0.03 | 0.03 | 0.03 | 94 | 1021.9 |
| 20260906050110 | 7 | 164 | 0.0 | 0.0 | 0.00 | 0.00 | 0.00 | 94 | 1021.5 |
| 20260906043058 | 7 | 164 | 0.0 | 0.0 | 0.00 | 0.00 | 0.00 | 94 | 1021.4 |
| 20260906040051 | 7 | 164 | 0.0 | 0.0 | 0.00 | 0.00 | 0.00 | 95 | 1021.2 |
| 20260906033049 | 8 | 164 | 0.0 | 0.0 | 0.00 | 0.03 | 0.00 | 95 | 1021.3 |
| 20260906030049 | 8 | 164 | 0.0 | 1.6 | 0.00 | 0.03 | 0.00 | 95 | 1021.1 |
| 20260906024607 | 8 | 164 | 0.0 | 0.0 | 0.00 | 0.03 | 0.00 | 95 | 1021.1 |
| 20260906021559 | 8 | 164 | 0.0 | 0.0 | 0.00 | 0.03 | 0.00 | 94 | 1021.1 |
| 20260906020057 | 8 | 164 | 0.0 | 0.0 | 0.00 | 0.03 | 0.00 | 95 | 1020.9 |
| 20260906014538 | 9 | 164 | 0.0 | 0.0 | 0.00 | 0.03 | 0.00 | 94 | 1020.9 |
| 20260906011553 | 9 | 164 | 0.0 | 0.0 | 0.00 | 0.03 | 0.00 | 95 | 1020.7 |
| 20260906004542 | 10 | 212 | 0.0 | 0.0 | 0.00 | 0.03 | 0.00 | 95 | 1020.7 |
| 20260906001546 | 10 | 212 | 0.0 | 0.0 | 0.00 | 0.03 | 0.00 | 95 | 1020.9 |
| 20260905234550 | 11 | 212 | 0.0 | 1.6 | 0.00 | 0.03 | 0.00 | 94 | 1020.9 |
| 20260905233041 | 10 | 212 | 0.0 | 0.0 | 0.00 | 0.03 | 0.00 | 95 | 1020.8 |
| 20260905231534 | 10 | 212 | 0.0 | 0.0 | 0.00 | 0.03 | 0.00 | 96 | 1020.9 |
| 20260905224539 | 10 | 253 | 0.0 | 0.0 | 0.00 | 0.03 | 0.00 | 95 | 1020.8 |
| 20260905223043 | 10 | 254 | 0.0 | 3.2 | 0.00 | 0.03 | 0.00 | 95 | 1020.7 |
| 20260905220150 | 10 | 256 | 0.0 | 3.2 | 0.00 | 0.03 | 0.00 | 95 | 1020.5 |
| 20260905214551 | 11 | 256 | 0.0 | 4.8 | 0.00 | 0.03 | 0.03 | 95 | 1020.5 |
| 20260905213046 | 10 | 232 | 0.0 | 0.0 | 0.00 | 0.03 | 0.03 | 95 | 1020.4 |
| 20260905211539 | 11 | 232 | 0.0 | 0.0 | 0.00 | 0.03 | 0.03 | 95 | 1020.3 |
| 20260905204552 | 11 | 21 | 0.0 | 0.0 | 0.00 | 0.03 | 0.03 | 95 | 1020.1 |
| 20260905201538 | 12 | 21 | 0.0 | 1.6 | 0.00 | 0.03 | 0.03 | 95 | 1019.9 |
| 20260905194558 | 12 | 21 | 1.6 | 3.2 | 0.00 | 0.03 | 0.03 | 95 | 1019.9 |
| 20260905193038 | 12 | 21 | 0.0 | 0.0 | 0.00 | 0.03 | 0.03 | 95 | 1019.6 |
| 20260905190055 | 13 | 21 | 0.0 | 0.0 | 0.00 | 0.03 | 0.03 | 95 | 1019.2 |
| 20260905183110 | 14 | 21 | 0.0 | 0.0 | 0.00 | 0.03 | 0.03 | 95 | 1018.7 |
| 20260905181556 | 15 | 21 | 0.0 | 3.2 | 0.00 | 0.03 | 0.03 | 95 | 1018.3 |
| 20260905180033 | 16 | 21 | 0.0 | 1.6 | 0.00 | 0.03 | 0.03 | 94 | 1018.1 |
| 20260905173045 | 17 | 185 | 0.0 | 4.8 | 0.00 | 0.03 | 0.03 | 94 | 1017.6 |
| 20260905171533 | 17 | 103 | 0.0 | 3.2 | 0.00 | 0.03 | 0.03 | 92 | 1017.4 |
| 20260905164554 | 18 | 272 | 3.2 | 11.3 | 0.00 | 0.03 | 0.03 | 90 | 1016.7 |
| 20260905163041 | 20 | 249 | 4.8 | 12.9 | 0.00 | 0.03 | 0.03 | 87 | 1016.5 |
| 20260905160052 | 19 | 116 | 3.2 | 14.5 | 0.00 | 0.03 | 0.03 | 89 | 1016.5 |
| 20260905153105 | 20 | 279 | 6.4 | 20.9 | 0.00 | 0.03 | 0.03 | 86 | 1016.4 |
| 20260905150050 | 20 | 278 | 6.4 | 12.9 | 0.00 | 0.03 | 0.03 | 87 | 1016.3 |
| 20260905144547 | 19 | 276 | 4.8 | 12.9 | 0.00 | 0.03 | 0.03 | 89 | 1016.3 |
| 20260905141530 | 20 | 219 | 6.4 | 16.1 | 0.00 | 0.03 | 0.03 | 87 | 1016.3 |
| 20260905134545 | 21 | 175 | 9.7 | 19.3 | 0.00 | 0.03 | 0.03 | 83 | 1016.4 |
| 20260905131546 | 21 | 306 | 8.0 | 20.9 | 0.00 | 0.03 | 0.03 | 80 | 1016.5 |
| 20260905130038 | 21 | 282 | 8.0 | 16.1 | 0.00 | 0.03 | 0.03 | 83 | 1016.7 |
| 20260905123102 | 21 | 299 | 9.7 | 17.7 | 0.00 | 0.03 | 0.03 | 78 | 1016.8 |
| 20260905121527 | 21 | 255 | 6.4 | 16.1 | 0.00 | 0.03 | 0.03 | 71 | 1017.0 |
| 20260905114548 | 20 | 289 | 6.4 | 14.5 | 0.00 | 0.03 | 0.03 | 75 | 1017.0 |
| 20260905113032 | 20 | 278 | 9.7 | 16.1 | 0.00 | 0.03 | 0.03 | 73 | 1017.1 |